THORAD AGENA D DEB, 4819

Orbit data source: Space-Track

THORAD AGENA D DEB, 4819 is space debris in SSO originally from a launch on Wed, 08 Apr 1970 UTC launched from the Air Force Western Test Range (AFWTR). Debris objects in space refer to the collection of defunct objects orbiting the Earth. Examples of debris include non-operational satellites, rocket bodies, and fragments generated from explosions, collisions, or faulty payload assembly.

Loading next visibility...
Identifier
4819, 1970-025EA
Orbit
SSO
Country
Flag of USUS
Related business
Manufacturer
Unknown
Mission
Spacecraft
Bus & Motor
Unknown
Mass
Unknown
Launch date (UTC)
1970-04-08 (56 years ago)
Launch vehicle
Unknown
Launch site
Air Force Western Test Range (AFWTR)
Object type
Payload
Rocket body
Debris
Shape & HBR
Unknown shape, 0.1 m
Radar Cross Section
Small (<0.1 m²)

Expand to show TLE details & history
Last TLE update: 1 day ago

TLE from 1 day ago
0 THORAD AGENA D DEB
1  4819U 70025EA  26061.95291517  .00007350  00000-0  24388-2 0  9992
2  4819 100.1039  63.9644 0029954 213.9608 145.9656 14.37894950828899
Epoch: 2026-03-02T22:52Z
TLE epoch observation values (Epoch: 2026-03-02T22:52:11.870Z)
Latitude
-0.0001°
Longitude
-79.82398°
Altitude
786.108 km
Speed
7.451 km/s
True Right ascension
04h 15m 51s
True Declination
0° 00' 00"
Sunlit
Object was in daylight at epoch
Visualization orbit readout
Latitude
Unknown
Longitude
Unknown
Altitude
Unknown
Speed
Unknown
Apparent Right ascension
Unknown
Apparent Declination
Unknown
Sunlit
N/A
Visualization observer readout
Local Sidereal Time
13:44:29
Azimuth
Unknown
Elevation
Unknown
Doppler factor
Unknown
Orbital elements
Apogee altitude
784.059 km
Perigee altitude
741.28 km
Semi-major axis
7,140.806 km
Eccentricity
0.003
Inclination
100.1039°
RAAN
63.9644°
Arg. of periapsis
213.9608°
True anomaly
146.15712°
Mean anomaly
145.9656°
Eccentric anomaly
146.06142°
Mean motion
3.59685 °/min
Orbital period
100.09 mins
BSTAR
0.0024388
Loading maneuver chart data...
Computing Atmospheric mass density...

Documentation

Showing up to 5 results
|